Probability
13 16 13 6 0 0 0 0 3 6 10 10 3 3 3 0 0 3 3 3 6 3 0 3 0 3 0 0 0 0 0 0 0 0 0 0 0 0 3 0 0 0 0
10 10 13 6 0 3 3 6 6 6 3 6 6 3 6 3 6 6 3 3 3 3 3 0 0 3 3 0 0 0 0 0 0 0 0 0 0 0 0 0 0 0 0
10 10 13 10 3 3 3 6 6 6 3 3 6 3 3 3 3 6 6 6 3 3 0 0 3 0 0 0 0 0 3 3 0 0 0 0 0 0 0 0 0 0 0
10 10 13 10 3 0 0 3 3 3 3 3 3 6 3 3 0 0 3 3 3 3 3 3 3 3 0 0 0 0 0 0 0 0 0 0 0 0 0 0 0 0 0
10 13 10 3 3 3 0 3 3 3 3 3 6 10 10 0 0 0 0 3 3 3 3 3 3 3 0 0 0 0 0 0 0 0 0 0 0 0 0 0 0 0 0
16 16 10 3 0 3 3 3 6 6 6 6 6 6 6 0 0 0 0 3 3 3 3 3 3 3 3 3 3 0 0 0 0 0 0 0 0 0 0 0 0 0 0
16 10 10 3 0 3 3 3 3 6 6 6 6 6 6 0 0 0 0 0 3 3 3 3 3 3 3 0 0 0 3 0 0 0 0 0 0 0 0 0 0 0 0
6 6 6 6 3 3 3 3 3 3 3 3 3 3 3 0 0 0 0 0 0 3 3 3 3 3 3 0 0 0 0 0 0 0 0 0 0 0 0 0 0 0 0
6 6 6 6 3 3 3 3 3 3 3 3 3 0 0 0 0 0 0 0 0 0 3 3 3 3 0 0 0 0 0 0 0 0 0 0 0 0 0 0 0 0 0
3 3 3 3 3 3 3 3 3 3 0 0 0 3 0 0 0 0 0 0 0 0 0 3 0 0 0 0 0 0 0 0 0 0 0 0 0 0 0 0 0 0 0
3 6 0 3 3 3 3 3 0 0 0 0 3 0 0 0 0 0 0 0 0 0 0 0 0 0 0 0 0 0 0 0 0 0 0 0 0 0 0 0 0 0 0
0 3 3 3 3 3 3 3 0 0 0 0 0 0 0 0 0 0 0 0 0 0 0 0 0 0 0 0 0 0 0 0 0 0 0 0 0 0 0 0 0 0 0
3 3 3 3 3 3 3 3 0 0 0 0 0 0 0 0 0 0 0 0 0 0 0 0 0 0 0 0 0 0 0 0 0 0 0 0 0 0 0 0 0 0 0
3 3 3 3 3 3 3 0 0 0 0 0 0 0 0 0 0 0 0 0 0 0 0 0 0 0 0 0 0 0 0 0 0 0 0 0 0 0 0 0 0 0 0
3 3 3 3 3 3 0 0 0 0 0 0 0 0 0 0 0 0 0 0 0 0 0 0 0 0 0 0 0 0 0 0 0 0 0 0 0 0 0 0 0 0 0
3 3 3 3 3 0 0 0 0 0 0 0 0 0 0 0 0 0 0 0 0 0 0 0 0 0 0 0 0 0 0 0 0 0 0 0 0 0 0 0 0 0 0
0 3 3 3 0 0 0 0 0 0 0 0 0 0 0 0 0 0 0 0 0 0 0 0 0 0 0 0 0 0 0 0 0 0 0 0 0 0 0 0 0 0 0
0 0 0 0 0 0 0 0 0 0 0 0 0 0 0 0 0 0 0 0 0 0 0 0 0 0 0 0 0 0 0 0 0 0 0 0 0 0 0 0 0 0 0
0 0 0 0 0 0 0 0 0 0 0 0 0 0 0 0 0 0 0 0 0 0 0 0 0 0 0 0 0 0 0 0 0 0 0 0 0 0 0 0 0 0 0
0 0 0 0 0 0 0 0 0 0 0 0 0 0 0 0 0 0 0 0 0 0 0 0 0 0 0 0 0 0 0 0 0 0 0 0 0 0 0 0 0 0 0
0 0 0 0 0 0 0 0 0 0 0 0 0 0 0 0 0 0 0 0 0 0 0 0 0 0 0 0 0 0 0 0 0 0 0 0 0 0 0 0 0 0 0
0 0 0 0 0 0 0 0 0 0 0 0 0 0 0 0 0 0 0 0 0 0 0 0 0 0 0 0 0 0 0 0 0 0 0 0 0 0 0 0 0 0 0
0 0 0 0 0 0 0 0 0 0 0 0 0 0 0 0 0 0 0 0 0 0 0 0 0 0 0 0 0 0 0 0 0 0 0 0 0 0 0 0 0 0 0
0 0 0 0 0 0 0 0 0 0 0 0 0 0 0 0 0 0 0 0 0 0 0 0 0 0 0 0 0 0 0 0 0 0 0 0 0 0 0 0 0 0 0
0 0 0 0 0 0 0 0 0 0 0 0 0 0 0 0 0 0 0 0 0 0 0 0 0 0 0 0 0 0 0 0 0 0 0 0 0 0 0 0 0 0 0
0 0 0 0 0 0 0 0 0 0 0 0 0 0 0 0 0 0 0 0 0 0 0 0 0 0 0 0 0 0 0 0 0 0 0 0 0 0 0 0 0 0 0
Height
5852 5850 5848 5845 5842 5840 5838 5835 5832 5829 5826 5822 5818 5814 5810 5805 5801 5797 5794 5789 5786 5785 5782 5780 5778 5776 5774 5773 5771 5770 5770 5770 5769 5769 5769 5769 5769 5769 5769 5769 5769 5770 5770
5848 5846 5843 5841 5838 5836 5833 5830 5827 5824 5820 5816 5812 5807 5803 5799 5795 5791 5787 5783 5780 5777 5774 5772 5770 5768 5766 5765 5764 5763 5763 5763 5762 5762 5762 5762 5763 5762 5762 5762 5762 5762 5762
5844 5842 5839 5837 5834 5831 5828 5825 5822 5819 5815 5811 5806 5801 5797 5792 5788 5784 5780 5776 5773 5769 5766 5764 5762 5760 5759 5758 5757 5756 5756 5756 5756 5755 5754 5755 5755 5755 5755 5754 5754 5754 5755
5840 5837 5835 5832 5829 5826 5823 5820 5816 5813 5809 5805 5800 5796 5791 5786 5782 5777 5773 5769 5765 5762 5759 5756 5754 5752 5751 5750 5750 5749 5749 5749 5748 5747 5747 5747 5747 5747 5747 5747 5747 5747 5747
5836 5833 5830 5827 5824 5821 5818 5815 5811 5807 5803 5799 5794 5790 5785 5781 5776 5772 5768 5763 5759 5755 5752 5749 5747 5745 5743 5742 5742 5742 5741 5741 5741 5740 5739 5739 5739 5738 5739 5740 5740 5740 5739
5832 5828 5825 5822 5819 5816 5813 5809 5805 5801 5797 5793 5789 5785 5780 5776 5771 5767 5763 5758 5754 5750 5746 5743 5740 5738 5736 5735 5735 5734 5733 5733 5733 5732 5732 5731 5731 5731 5731 5732 5732 5732 5732
5827 5824 5821 5817 5814 5810 5807 5803 5799 5795 5791 5787 5783 5779 5775 5770 5766 5762 5758 5754 5749 5745 5741 5737 5735 5732 5730 5729 5728 5727 5726 5725 5725 5724 5723 5723 5723 5723 5724 5724 5725 5725 5725
5822 5819 5815 5812 5808 5805 5801 5797 5793 5789 5785 5781 5777 5773 5769 5765 5761 5757 5753 5749 5744 5740 5736 5733 5730 5727 5725 5723 5722 5720 5719 5718 5717 5716 5716 5715 5715 5716 5716 5717 5717 5718 5718
5817 5814 5810 5806 5803 5799 5795 5791 5787 5783 5779 5776 5772 5768 5765 5761 5757 5753 5749 5744 5740 5736 5733 5729 5725 5723 5720 5718 5716 5715 5713 5712 5710 5710 5709 5708 5708 5709 5709 5709 5710 5711 5711
5813 5809 5806 5802 5798 5794 5790 5786 5782 5778 5774 5771 5768 5764 5760 5756 5752 5748 5744 5740 5736 5732 5728 5725 5722 5719 5716 5713 5711 5710 5708 5706 5705 5704 5703 5702 5702 5702 5702 5702 5702 5703 5703
5809 5805 5801 5797 5793 5789 5786 5782 5778 5774 5771 5767 5764 5760 5756 5752 5748 5745 5741 5737 5733 5729 5725 5721 5718 5715 5712 5709 5707 5705 5703 5702 5700 5699 5697 5696 5696 5696 5695 5695 5695 5695 5695
5805 5802 5798 5794 5790 5786 5782 5778 5774 5770 5767 5763 5760 5756 5752 5748 5745 5742 5738 5734 5731 5727 5722 5719 5715 5712 5708 5706 5704 5702 5700 5698 5696 5694 5692 5691 5690 5690 5689 5689 5689 5688 5688
5801 5798 5794 5790 5787 5783 5779 5775 5771 5767 5763 5760 5756 5752 5749 5745 5742 5739 5735 5732 5728 5724 5720 5716 5712 5709 5706 5703 5701 5699 5697 5694 5692 5690 5688 5686 5685 5684 5684 5683 5682 5682 5681
5798 5795 5791 5787 5783 5779 5775 5771 5767 5763 5760 5756 5753 5750 5746 5743 5740 5736 5733 5729 5725 5722 5718 5714 5710 5707 5704 5701 5698 5696 5694 5691 5689 5687 5684 5682 5681 5680 5679 5678 5677 5675 5674
5795 5792 5788 5785 5781 5777 5772 5768 5764 5761 5757 5754 5751 5747 5744 5741 5738 5734 5731 5727 5723 5720 5716 5712 5708 5705 5702 5699 5696 5694 5692 5689 5686 5684 5681 5679 5677 5676 5674 5673 5671 5669 5668
5793 5789 5785 5782 5779 5775 5770 5766 5762 5759 5756 5752 5749 5746 5743 5739 5736 5732 5728 5725 5722 5718 5714 5711 5707 5704 5701 5698 5695 5692 5689 5687 5684 5681 5678 5676 5673 5672 5670 5668 5666 5665 5663
5790 5787 5784 5780 5777 5773 5769 5765 5761 5758 5755 5751 5748 5744 5741 5738 5734 5731 5727 5724 5720 5717 5713 5710 5707 5703 5700 5697 5694 5691 5688 5685 5682 5679 5676 5673 5671 5669 5667 5665 5663 5661 5659
5788 5785 5782 5778 5775 5771 5768 5764 5760 5757 5754 5750 5747 5743 5740 5737 5733 5730 5726 5722 5719 5716 5713 5709 5706 5703 5699 5696 5693 5690 5687 5683 5680 5676 5673 5670 5668 5666 5664 5662 5660 5658 5655
5785 5783 5780 5776 5773 5770 5766 5763 5760 5756 5753 5750 5747 5743 5739 5736 5732 5729 5725 5721 5718 5715 5712 5709 5705 5702 5699 5696 5692 5689 5685 5682 5678 5675 5672 5669 5666 5664 5662 5660 5658 5655 5652
5782 5779 5777 5774 5771 5768 5765 5762 5758 5755 5752 5749 5746 5742 5739 5735 5732 5728 5724 5721 5717 5714 5711 5708 5705 5702 5698 5695 5691 5687 5684 5681 5678 5675 5671 5669 5666 5663 5660 5658 5655 5652 5650
5779 5776 5773 5771 5768 5765 5763 5760 5757 5754 5751 5747 5744 5741 5738 5734 5731 5727 5724 5720 5717 5713 5711 5708 5704 5701 5698 5694 5690 5686 5683 5680 5677 5674 5672 5668 5665 5662 5659 5656 5653 5650 5647
5775 5773 5770 5768 5765 5763 5760 5758 5755 5752 5749 5746 5743 5740 5736 5733 5730 5726 5723 5719 5716 5714 5711 5707 5704 5701 5697 5694 5690 5686 5683 5680 5677 5674 5671 5668 5664 5661 5658 5655 5652 5648 5645
5771 5769 5766 5764 5762 5760 5758 5756 5753 5750 5747 5744 5741 5738 5734 5731 5728 5725 5721 5718 5716 5714 5711 5707 5704 5700 5697 5694 5690 5686 5682 5679 5676 5673 5670 5667 5664 5661 5657 5654 5650 5647 5643
5766 5764 5762 5761 5759 5757 5755 5752 5750 5747 5744 5741 5739 5736 5733 5730 5727 5724 5721 5718 5715 5713 5710 5707 5703 5700 5697 5693 5690 5686 5682 5679 5675 5672 5669 5666 5662 5659 5656 5653 5649 5645 5641
5761 5759 5758 5756 5755 5753 5751 5749 5747 5744 5742 5739 5736 5734 5731 5728 5725 5722 5720 5717 5715 5712 5709 5706 5703 5700 5697 5693 5690 5686 5682 5678 5675 5671 5668 5665 5662 5658 5655 5651 5648 5643 5639
5755 5754 5753 5752 5751 5749 5748 5746 5744 5741 5739 5737 5734 5732 5729 5726 5724 5721 5719 5716 5714 5711 5709 5706 5703 5700 5697 5693 5689 5685 5682 5678 5674 5671 5668 5665 5661 5658 5654 5650 5646 5642 5637
Wind_Speed
19 19 20 20 21 21 22 24 25 26 27 27 28 28 28 28 27 27 28 27 27 27 28 27 27 26 26 25 25 24 25 24 24 24 24 24 23 24 24 25 26 26 27
19 20 21 20 21 23 24 25 26 27 27 28 29 29 28 27 26 27 27 27 27 26 26 26 26 25 25 24 24 23 23 23 24 24 24 24 24 24 25 25 25 26 27
21 21 21 22 23 23 25 27 27 27 27 28 29 29 29 28 27 27 27 27 27 27 26 25 25 24 24 24 22 22 22 23 24 24 25 25 25 25 25 26 25 25 26
22 22 23 23 24 25 26 27 27 28 28 29 29 29 28 28 27 27 26 26 26 25 24 23 23 23 23 23 22 22 23 24 24 25 25 26 25 25 25 25 25 25 26
23 23 23 24 24 25 26 26 27 28 28 28 29 28 27 27 26 25 25 25 24 24 23 22 21 21 21 22 21 23 23 24 25 26 26 26 25 25 25 25 25 26 25
23 24 24 24 25 26 27 27 27 28 28 27 27 26 26 26 25 24 24 24 23 22 22 21 20 20 21 21 22 22 23 23 25 26 26 26 25 25 25 25 25 25 24
23 23 24 25 25 26 27 27 27 28 27 27 26 26 26 25 24 23 23 23 22 21 21 20 20 19 19 19 20 22 22 22 23 24 25 25 25 24 25 25 25 25 25
22 23 24 24 25 26 26 27 27 26 26 25 25 25 23 23 22 22 22 22 21 21 20 19 19 18 17 17 18 19 20 20 21 22 23 24 23 23 24 24 24 24 24
23 24 25 25 24 25 25 26 26 26 25 25 25 24 23 22 21 22 22 20 20 19 18 18 18 17 17 17 18 18 19 18 18 19 20 21 21 22 21 22 22 23 23
23 24 24 23 24 24 24 24 24 25 24 24 23 23 23 21 21 21 20 20 19 18 19 18 17 17 17 16 16 16 16 16 16 17 17 18 19 20 20 20 20 21 22
23 23 22 22 23 23 23 23 23 23 22 22 22 22 22 22 21 21 20 19 18 18 18 17 17 17 16 14 14 13 13 13 13 14 16 17 17 18 18 18 19 21 22
21 20 20 21 21 21 21 22 21 22 22 22 21 22 22 21 20 19 19 18 18 18 17 17 17 17 15 14 12 11 12 12 13 13 14 14 15 16 17 17 19 20 22
20 19 19 20 20 20 20 20 20 21 21 21 21 20 20 20 19 19 18 18 17 17 17 16 16 15 14 12 12 11 11 12 12 13 13 13 14 14 15 17 18 19 21
19 18 18 18 18 19 19 20 20 20 20 20 19 19 19 19 19 18 17 17 17 17 17 17 16 14 12 12 11 10 11 11 11 12 12 12 12 13 14 16 17 18 19
18 18 17 17 18 19 19 19 19 18 17 18 18 18 17 17 17 17 17 17 16 16 16 16 14 12 12 12 11 11 10 11 11 11 12 12 12 13 14 14 15 16 17
17 17 16 16 17 18 18 18 17 17 17 18 18 17 17 16 17 17 17 16 16 16 15 15 13 12 12 12 11 11 10 11 12 12 12 12 12 12 13 14 15 15 16
16 16 17 17 18 18 17 17 16 16 17 17 17 17 16 16 16 16 17 16 16 17 16 14 14 13 12 12 12 12 11 12 12 12 11 12 11 12 12 12 13 14 15
16 16 17 17 17 17 16 16 15 15 15 16 16 16 16 16 16 16 16 16 16 16 15 14 13 13 13 13 13 12 12 13 13 12 11 11 11 11 11 11 12 13 15
17 16 16 16 16 16 16 15 15 15 15 15 16 16 16 16 16 16 16 15 14 13 13 14 13 13 13 14 13 13 13 13 12 11 11 11 11 11 12 12 13 14 15
17 16 16 16 16 16 15 15 15 15 15 15 16 16 16 16 16 16 17 16 14 12 12 13 13 13 14 14 14 14 13 13 11 11 11 11 11 12 12 12 13 14 14
17 17 16 16 16 16 15 15 14 15 15 15 15 15 16 16 16 16 17 15 13 12 12 13 13 14 14 14 15 14 13 12 11 11 11 11 11 12 12 13 13 14 15
17 16 16 16 15 15 15 15 15 15 15 15 15 15 16 16 16 16 16 14 12 11 12 12 13 13 14 14 15 15 13 13 12 11 11 12 12 12 13 14 15 16 17
17 16 16 15 15 15 15 15 15 15 15 15 15 15 16 16 16 16 15 13 12 11 12 13 13 13 14 15 15 14 13 13 13 12 13 13 13 14 14 15 16 17 18
18 17 16 15 15 15 15 15 15 15 15 15 15 14 14 15 15 14 13 12 11 11 12 12 13 13 14 15 15 14 13 13 13 13 14 14 15 14 15 16 17 18 18
19 18 16 15 15 14 15 14 14 14 14 14 14 14 14 15 14 13 11 11 11 11 12 12 13 13 14 15 15 14 14 15 15 14 14 15 15 15 16 16 17 18 19
19 18 16 16 15 15 15 14 14 14 14 14 14 13 13 13 12 11 11 11 10 11 11 12 12 13 13 14 14 14 14 15 15 15 15 15 15 15 16 17 18 19 20
Wind_Direction
312 312 313 311 311 310 310 310 312 313 315 315 313 311 309 305 301 300 299 297 294 291 287 284 283 282 282 280 278 273 270 269 269 268 267 266 264 261 261 260 259 257 255
310 312 310 309 310 310 310 312 314 314 314 315 315 314 311 308 305 304 303 301 299 294 289 286 284 283 282 280 278 274 270 268 268 269 267 266 266 264 262 260 259 257 256
311 310 306 310 312 312 312 312 315 315 316 318 318 315 312 310 308 306 306 305 303 297 291 287 285 284 282 280 276 273 270 268 267 268 268 267 266 265 261 261 260 259 259
309 308 310 310 310 310 312 313 315 316 316 317 317 316 314 312 310 309 309 309 308 304 296 290 286 284 282 279 275 274 272 270 267 267 269 268 267 264 261 260 259 258 260
309 306 308 309 309 309 309 313 316 317 317 317 318 317 316 315 313 313 312 313 312 309 304 298 290 286 282 279 275 275 274 272 268 266 268 268 267 264 262 261 259 259 260
307 305 306 307 306 308 310 312 315 316 316 316 316 316 317 317 315 315 315 315 314 312 309 301 293 290 285 281 277 276 276 274 271 268 266 266 266 263 263 261 260 260 260
309 310 310 310 310 311 312 314 315 316 316 317 316 315 316 317 317 317 318 318 317 316 313 307 303 298 294 288 282 278 277 276 273 270 266 265 264 264 264 264 263 263 263
314 315 314 314 314 312 313 315 316 317 318 319 318 316 316 319 318 318 319 320 320 319 318 315 311 305 299 294 288 284 283 279 275 272 269 267 267 265 265 265 264 265 266
317 320 321 319 317 315 314 315 317 319 319 319 320 319 319 319 319 320 319 320 320 321 322 320 314 309 304 299 293 288 285 283 280 277 274 270 268 267 266 265 265 265 266
318 319 320 320 319 319 319 318 319 321 320 318 318 320 319 320 321 322 321 321 322 322 322 321 317 314 311 306 301 297 293 290 286 281 278 274 270 268 268 269 268 268 269
318 317 319 321 320 320 321 321 320 320 320 321 320 322 322 323 322 324 322 324 325 325 322 321 321 319 319 317 312 306 303 299 293 289 284 279 275 272 272 274 273 272 271
320 319 319 321 321 320 320 321 321 322 324 325 325 326 327 327 326 325 326 326 327 330 329 327 327 327 325 324 322 315 310 306 305 301 297 290 283 278 277 278 277 275 274
323 321 320 321 322 320 320 321 324 325 326 328 329 331 334 334 331 328 328 327 328 332 333 333 331 329 329 327 322 315 312 312 313 311 306 300 292 286 283 283 281 278 276
326 326 326 326 325 325 325 326 327 328 328 330 332 333 334 334 334 333 333 332 331 334 336 335 335 333 334 332 328 326 323 323 321 319 314 307 297 291 289 287 285 282 279
331 331 330 331 331 331 331 332 333 335 336 337 337 338 337 336 338 339 338 340 342 341 341 341 341 338 338 340 338 336 331 330 328 324 319 313 305 299 298 298 296 292 286
336 336 335 335 335 336 338 340 341 343 344 343 343 342 341 340 341 342 343 345 348 347 345 345 350 348 347 346 344 342 337 334 331 326 323 320 315 310 305 305 304 300 293
331 333 334 335 336 338 342 344 345 346 345 346 346 345 344 344 345 346 348 349 351 350 349 349 349 351 350 350 348 346 342 338 334 330 329 330 327 321 315 310 308 305 299
325 328 331 333 335 339 342 345 348 348 349 350 351 350 350 350 350 350 350 351 351 352 354 353 353 355 353 349 346 341 335 335 336 337 340 340 336 332 323 317 314 313 310
322 325 328 331 334 336 339 343 345 347 350 351 352 352 352 352 352 353 352 350 349 349 355 357 357 356 352 349 347 345 343 343 346 348 351 347 342 335 330 322 319 319 319
319 321 323 327 331 335 338 339 343 345 346 347 349 351 352 353 353 354 353 353 353 355 358 358 358 356 354 353 351 351 351 350 351 353 353 353 348 342 339 337 334 332 328
313 317 320 321 325 331 334 335 339 341 343 344 347 349 350 350 350 351 353 353 355 357 359 357 357 358 358 358 356 354 352 354 351 349 349 350 348 346 345 343 340 339 336
307 311 313 316 320 324 326 328 334 337 339 341 343 344 347 349 350 350 351 354 356 358 357 358 359 359 358 358 358 356 354 354 354 352 349 346 346 346 347 346 344 341 338
303 305 307 310 315 318 319 321 327 332 335 336 338 340 343 346 347 349 353 357 358 357 358 358 358 357 357 357 358 358 358 355 354 355 352 349 348 348 348 348 346 345 343
298 299 300 303 307 310 312 316 321 326 330 332 334 336 339 343 346 349 352 354 353 354 356 358 358 0 0 359 358 356 355 357 357 355 353 351 350 349 347 346 345 345 344
293 293 294 297 303 305 309 312 315 321 325 329 332 334 335 339 343 349 353 353 352 353 355 357 360 3 5 4 2 3 3 2 3 1 358 357 357 355 352 350 349 348 348
289 288 288 291 296 300 304 307 309 314 318 323 328 331 334 336 341 348 352 351 349 350 354 357 359 3 6 5 3 3 2 360 359 0 0 358 356 355 354 353 352 351 350